星链-2238 (STARLINK-2238 )

导读 | 星芒AI

STARLINK-2238 是 SpaceX Starlink 卫星互联网项目中的第2238颗卫星,属于低轨卫星群的一部分。该卫星于2023年发射,旨在为全球用户提供高速、低延迟的互联网服务。它运行在约550公里高的近地轨道,采用先进通信技术,支持宽带接入。Starlink 项目致力于改善偏远地区网络覆盖,推动全球数字连接。STARLINK-2238 的部署有助于提升系统整体性能和可靠性。

基本信息
目录编号:
48584
目录名称:
STARLINK-2238
国际标识:
2021-041AH
轨道中心:
EARTH
卫星名称:
星链-2238
卫星全名:
星链-2238 (STARLINK-2238 )
卫星状态:
在轨 (已飞行1677 天)
发射日期:
2021-05-15 UTC
国别 :
美国 (US)
星等 :
--
轨道信息
数据来源 国际轨道数据
星历时间: 2025-12-16T01:47:50+0800
1天前
查看轨道信息
半长轴: 6925.341km
偏心率: 0.0001303
轨道倾角: 53.054°
近地点辐角 88.959°
升交点赤经 158.473°
平近点角 271.155°
近地点: 546.303km
远地点: 548.109km
周期: 95.592分钟
每日圈数: 15.064027
详细信息
固有亮度:
5
最大亮度:
2.5
卫星平台:
Starlink V1.0
覆盖范围:
全球
运营商:
太空探索技术公司
运营商所在国:
美国
制造商(研发单位):
太空探索技术公司
制造商所在国:
美国
使用方式:
暂无
卫星简介
星链(Starlink)计划是由太空探索技术公司(SpaceX)提出的一个巨型低轨卫星互联网星座项目,计划在2019年至2024年间在太空搭建由约1.2万颗卫星组成的“星链”网络,其中1584颗将部署在地球上空550千米处的近地轨道,并从2020年开始工作。该卫星仍在工作。
2D轨道图
3D轨道图
轨道高度分析图
轨道倾角分析图
轨道综合分析图
查看轨道综合分析图